Chicago Midway, IL

5:48 AM CST on December 14, 2019 (GMT -0600)
Chicago-Midway

Weather History for KMDW - October, 2019

Change the Weather History Date:

Thursday, October 31, 2019

  Actual Average Record
Temperature  
Mean Temperature 32 °F 49 °F  
Max Temperature 38 °F 57 °F 84 °F (1950)
Min Temperature 26 °F 41 °F 27 °F (1996)
Degree Days  
Heating Degree Days 33 16  
Month to date heating degree days 390 348  
Since 1 July heating degree days 391 431  
Cooling Degree Days 0 0  
Month to date cooling degree days 21 16  
Year to date cooling degree days 1131 1045  
Moisture  
Dew Point 30 °F    
Average Humidity 88    
Maximum Humidity 97    
Minimum Humidity 66    
Precipitation  
Precipitation 0.13 in 0.11 in 2.63 in (1994)
Month to date precipitation 5.00 3.24  
Year to date precipitation 42.82 33.10  
Snow  
Snow 0.00 in - - ()
Snow Depth 2.00 in    
Sea Level Pressure  
Sea Level Pressure 29.90 in    
Wind  
Wind Speed 16 mph (NW)    
Max Wind Speed 25 mph    
Max Gust Speed 35 mph    
Visibility 3 miles    
Events Fog , Rain , Snow    
T = Trace of Precipitation, MM = Missing Value Source: NWS Daily Summary

Daily Weather History Graph

Daily Weather History Graph

Search for Another Location

Airport or City:

Astronomy

Oct. 31, 2019 Rise Set
Actual Time 7:21 AM CDT 5:46 PM CDT
Civil Twilight 6:52 AM CDT 6:15 PM CDT
Nautical Twilight 6:20 AM CDT 6:48 PM CDT
Astronomical Twilight 5:47 AM CDT 7:20 PM CDT
Moon 11:12 AM CDT (10/31) 8:40 PM CDT (10/31)
Length of Visible Light 11h 22m
Length of Day
10h 25m
Waxing Crescent, 16% of the Moon is Illuminated
Oct 31
Waxing Crescent
Nov 4
First Quarter
Nov 12
Full
Nov 19
Last Quarter
Nov 26
New

Hourly Weather History & Observations

Time (CDT) Temp. Windchill Dew Point Humidity Pressure Visibility Wind Dir Wind Speed Gust Speed Precip Events Conditions
12:53 AM 39.0 °F 29.3 °F 37.0 °F 93% 29.91 in 3.0 mi North 19.6 mph 29.9 mph 0.04 in Rain Light Rain
1:53 AM 37.0 °F 28.5 °F 35.1 °F 93% 29.88 in 2.0 mi NNW 13.8 mph - 0.03 in Rain Light Rain
2:53 AM 36.0 °F 27.1 °F 35.1 °F 97% 29.89 in 2.0 mi North 13.8 mph - 0.03 in   Light Drizzle
3:30 AM 36.0 °F 27.1 °F 34.0 °F 93% 29.84 in 2.5 mi North 13.8 mph - 0.02 in   Light Drizzle
3:53 AM 35.1 °F 25.5 °F 34.0 °F 96% 29.88 in 2.5 mi NNW 15.0 mph - 0.02 in   Light Drizzle
4:27 AM 34.0 °F 23.8 °F 33.1 °F 96% 29.84 in 2.5 mi NNW 16.1 mph 24.2 mph 0.02 in Rain Light Ice Pellets
4:53 AM 34.0 °F 24.2 °F 32.0 °F 92% 29.86 in 2.5 mi North 15.0 mph - 0.03 in Snow Light Ice Pellets
5:53 AM 34.0 °F 23.4 °F 32.0 °F 92% 29.83 in 2.0 mi North 17.3 mph - 0.00 in Snow Light Snow
6:53 AM 34.0 °F 23.4 °F 32.0 °F 92% 29.81 in 2.5 mi NNW 17.3 mph - 0.00 in Snow Light Snow
7:28 AM 34.0 °F 23.8 °F 32.0 °F 92% 29.77 in 2.0 mi NNW 16.1 mph - 0.00 in Snow Light Snow
7:53 AM 34.0 °F 23.8 °F 30.9 °F 89% 29.80 in 2.0 mi NNW 16.1 mph 26.5 mph 0.01 in Snow Light Snow
8:04 AM 33.1 °F 22.6 °F 30.9 °F 92% 29.77 in 1.8 mi NNW 16.1 mph - 0.00 in Snow Light Snow
8:24 AM 34.0 °F 23.4 °F 30.9 °F 89% 29.75 in 2.0 mi NNW 17.3 mph - 0.00 in Snow Light Snow
8:46 AM 33.1 °F 22.2 °F 30.9 °F 92% 29.75 in 1.5 mi NNW 17.3 mph 31.1 mph 0.00 in Snow Light Snow
8:53 AM 34.0 °F 23.4 °F 30.9 °F 89% 29.78 in 1.5 mi NNW 17.3 mph 25.3 mph 0.00 in Snow Light Snow
9:53 AM 34.0 °F 23.0 °F 30.9 °F 89% 29.77 in 1.2 mi NNW 18.4 mph 27.6 mph 0.00 in Snow Light Snow
10:53 AM 33.1 °F 21.5 °F 30.9 °F 92% 29.78 in 1.2 mi NW 19.6 mph 29.9 mph 0.00 in Snow Light Snow
11:53 AM 33.1 °F 22.6 °F 32.0 °F 96% 29.79 in 1.0 mi NW 16.1 mph 28.8 mph 0.00 in Snow Light Snow
12:11 PM 33.1 °F 21.5 °F 30.9 °F 92% 29.76 in 0.5 mi NW 19.6 mph 28.8 mph 0.00 in Fog , Snow Light Snow
12:53 PM 32.0 °F 20.8 °F 30.9 °F 96% 29.80 in 0.5 mi NW 17.3 mph 29.9 mph 0.00 in Fog , Snow Light Snow
1:53 PM 32.0 °F 19.8 °F 30.9 °F 96% 29.83 in 0.5 mi NW 20.7 mph 31.1 mph 0.00 in Fog , Snow Snow
2:53 PM 33.1 °F 21.5 °F 30.9 °F 92% 29.87 in 0.5 mi NW 19.6 mph 32.2 mph 0.01 in Fog , Snow Snow
3:53 PM 32.0 °F 20.8 °F 30.0 °F 92% 29.91 in 0.8 mi NW 17.3 mph 31.1 mph 0.00 in Snow Light Snow
4:08 PM 32.0 °F 21.2 °F 30.0 °F 92% 29.89 in 1.0 mi WNW 16.1 mph 26.5 mph 0.00 in Snow Light Snow
4:23 PM 33.1 °F 22.6 °F 30.0 °F 89% 29.91 in 2.0 mi NW 16.1 mph 29.9 mph 0.00 in Snow Light Snow
4:35 PM 33.1 °F 21.5 °F 28.9 °F 85% 29.92 in 3.0 mi NW 19.6 mph 27.6 mph 0.00 in Snow Light Snow
4:53 PM 33.1 °F 21.5 °F 28.9 °F 85% 29.96 in 1.5 mi NW 19.6 mph 27.6 mph 0.00 in Snow Light Snow
5:00 PM 33.1 °F 22.2 °F 28.9 °F 85% 29.94 in 1.5 mi WNW 17.3 mph 27.6 mph 0.00 in Snow Light Snow
5:18 PM 33.1 °F 23.4 °F 28.9 °F 85% 29.95 in 2.5 mi WNW 13.8 mph 26.5 mph 0.00 in Snow Light Snow
5:30 PM 33.1 °F 22.2 °F 28.9 °F 85% 29.96 in 5.0 mi WNW 17.3 mph 33.4 mph 0.00 in Snow Light Snow
5:53 PM 32.0 °F 19.5 °F 28.0 °F 85% 30.01 in 5.0 mi WNW 21.9 mph 28.8 mph 0.00 in   Overcast
6:53 PM 32.0 °F 21.2 °F 27.0 °F 82% 30.07 in 10.0 mi West 16.1 mph - N/A   Mostly Cloudy
7:53 PM 30.9 °F 22.2 °F 25.0 °F 79% 30.11 in 10.0 mi West 10.4 mph - N/A   Partly Cloudy
8:53 PM 30.9 °F 20.7 °F 24.1 °F 76% 30.13 in 10.0 mi West 13.8 mph - N/A   Partly Cloudy
9:53 PM 30.0 °F 20.5 °F 23.0 °F 75% 30.17 in 10.0 mi West 11.5 mph - N/A   Partly Cloudy
10:53 PM 28.9 °F 19.8 °F 23.0 °F 78% 30.18 in 10.0 mi West 10.4 mph - N/A   Clear
11:53 PM 28.0 °F 19.3 °F 21.9 °F 78% 30.19 in 10.0 mi WSW 9.2 mph - N/A   Clear